Weather History for KS25 - August, 2013

Change the Weather History Date:

Thursday, August 22, 2013

  Actual Average (KISN) Record (KISN)
Temperature  
Mean Temperature 68 °F 68 °F  
Max Temperature 82 °F 83 °F 103 °F (1969)
Min Temperature 53 °F 53 °F 32 °F (1911)
Degree Days  
Heating Degree Days 0 2  
Month to date heating degree days 25  
Since 1 June heating degree days 169  
Since 1 July heating degree days 49  
Cooling Degree Days 2 4  
Month to date cooling degree days 135  
Year to date cooling degree days 398  
Since 1 June cooling degree days 385  
Growing Degree Days 18 (Base 50)    
Moisture  
Dew Point 47 °F    
Average Humidity 48    
Maximum Humidity 72    
Minimum Humidity 28    
Precipitation  
Precipitation 0.00 in 0.05 in 0.83 in (1946)
Month to date precipitation 1.05  
Year to date precipitation 10.72  
Snow  
Snow 0.00 in 0.00 in T in (1981)
Month to date snowfall 0.0  
Since 1 June snowfall 0.0  
Since 1 July snowfall 0.0  
Snow Depth -    
Sea Level Pressure  
Sea Level Pressure 30.13 in    
Wind  
Wind Speed 8 mph (ESE)    
Max Wind Speed 17 mph    
Max Gust Speed 26 mph    
Visibility 10 miles    
Events      
T = Trace of Precipitation, MM = Missing Value Source: NWS Daily Summary

Daily Weather History Graph

Daily Weather History Graph

Search for Another Location

Airport or City:

Trip Planner

Search our weather history database for the weather conditions in past years. The results will help you decide how hot, cold, wet, or windy it might be!

Date:

Astronomy

Aug. 22, 2013 Rise Set
Actual Time 6:58 AM CDT 8:52 PM CDT
Civil Twilight 6:25 AM CDT 9:25 PM CDT
Nautical Twilight 5:44 AM CDT 10:05 PM CDT
Astronomical Twilight 4:59 AM CDT 10:50 PM CDT
Moon 9:22 PM CDT (8/22) 9:02 AM CDT (8/22)
Length of Visible Light 15h 00m
Length of Day
13h 54m
Waning Gibbous, 96% of the Moon is Illuminated
Aug 22
Waning Gibbous
Aug 28
Last Quarter
Sep 5
New
Sep 12
First Quarter
Sep 19
Full

Hourly Weather History & Observations

Time (CDT) Temp. Heat Index Dew Point Humidity Pressure Visibility Wind Dir Wind Speed Gust Speed Precip Events Conditions
12:15 AM 57.2 °F - 46.4 °F 67% 30.15 in 10.0 mi East 3.5 mph - N/A   Scattered Clouds
12:35 AM 57.2 °F - 46.4 °F 67% 30.16 in 10.0 mi ESE 4.6 mph - N/A   Mostly Cloudy
12:55 AM 59.0 °F - 44.6 °F 59% 30.16 in 10.0 mi East 6.9 mph - N/A   Mostly Cloudy
1:15 AM 59.0 °F - 44.6 °F 59% 30.17 in 10.0 mi East 6.9 mph - N/A   Partly Cloudy
1:35 AM 59.0 °F - 44.6 °F 59% 30.17 in 10.0 mi East 4.6 mph - N/A   Mostly Cloudy
1:55 AM 57.2 °F - 44.6 °F 63% 30.18 in 10.0 mi East 3.5 mph - N/A   Scattered Clouds
2:15 AM 57.2 °F - 42.8 °F 59% 30.18 in 10.0 mi East 4.6 mph - N/A   Partly Cloudy
2:35 AM 55.4 °F - 42.8 °F 63% 30.18 in 10.0 mi East 5.8 mph - N/A   Clear
2:55 AM 53.6 °F - 44.6 °F 72% 30.18 in 10.0 mi Calm Calm - N/A   Clear
3:15 AM 53.6 °F - 44.6 °F 72% 30.19 in 10.0 mi NE 3.5 mph - N/A   Mostly Cloudy
3:35 AM 55.4 °F - 44.6 °F 67% 30.19 in 10.0 mi ENE 4.6 mph - N/A   Mostly Cloudy
3:55 AM 57.2 °F - 44.6 °F 63% 30.19 in 10.0 mi Calm Calm - N/A   Overcast
4:15 AM 57.2 °F - 44.6 °F 63% 30.19 in 10.0 mi ENE 5.8 mph - N/A   Overcast
4:35 AM 57.2 °F - 44.6 °F 63% 30.20 in 10.0 mi East 4.6 mph - N/A   Overcast
4:55 AM 59.0 °F - 44.6 °F 59% 30.20 in 10.0 mi East 4.6 mph - N/A   Overcast
5:15 AM 59.0 °F - 46.4 °F 63% 30.20 in 10.0 mi East 3.5 mph - N/A   Overcast
5:35 AM 60.8 °F - 44.6 °F 55% 30.19 in 10.0 mi East 9.2 mph - N/A   Overcast
5:55 AM 60.8 °F - 42.8 °F 52% 30.20 in 10.0 mi East 4.6 mph - N/A   Overcast
6:15 AM 60.8 °F - 42.8 °F 52% 30.20 in 10.0 mi East 6.9 mph - N/A   Overcast
6:35 AM 60.8 °F - 42.8 °F 52% 30.20 in 10.0 mi East 3.5 mph - N/A   Overcast
6:55 AM 59.0 °F - 44.6 °F 59% 30.20 in 10.0 mi East 3.5 mph - N/A   Mostly Cloudy
7:15 AM 59.0 °F - 44.6 °F 59% 30.21 in 10.0 mi Calm Calm - N/A   Mostly Cloudy
7:35 AM 59.0 °F - 44.6 °F 59% 30.21 in 10.0 mi Calm Calm - N/A   Mostly Cloudy
7:55 AM 59.0 °F - 44.6 °F 59% 30.21 in 10.0 mi East 3.5 mph - N/A   Mostly Cloudy
8:15 AM 62.6 °F - 44.6 °F 52% 30.21 in 10.0 mi East 4.6 mph - N/A   Mostly Cloudy
8:35 AM 64.4 °F - 44.6 °F 49% 30.21 in 10.0 mi ESE 9.2 mph - N/A   Overcast
8:55 AM 64.4 °F - 44.6 °F 49% 30.21 in 10.0 mi SE 10.4 mph - N/A   Mostly Cloudy
9:15 AM 64.4 °F - 44.6 °F 49% 30.21 in 10.0 mi ESE 8.1 mph - N/A   Mostly Cloudy
9:35 AM 66.2 °F - 44.6 °F 46% 30.21 in 10.0 mi SE 10.4 mph - N/A   Overcast
9:55 AM 66.2 °F - 42.8 °F 43% 30.21 in 10.0 mi SE 12.7 mph 18.4 mph N/A   Overcast
10:15 AM 68.0 °F - 42.8 °F 40% 30.21 in 10.0 mi SE 9.2 mph 19.6 mph N/A   Overcast
10:35 AM 68.0 °F - 44.6 °F 43% 30.21 in 10.0 mi SE 10.4 mph - N/A   Mostly Cloudy
10:55 AM 69.8 °F - 41.0 °F 35% 30.21 in 10.0 mi ESE 12.7 mph 18.4 mph N/A   Mostly Cloudy
11:15 AM 71.6 °F - 41.0 °F 33% 30.21 in 10.0 mi ESE 12.7 mph 19.6 mph N/A   Overcast
11:35 AM 75.2 °F - 42.8 °F 31% 30.21 in 10.0 mi SE 11.5 mph 17.3 mph N/A   Mostly Cloudy
11:55 AM 75.2 °F - 41.0 °F 29% 30.20 in 10.0 mi SE 13.8 mph 18.4 mph N/A   Scattered Clouds
12:15 PM 75.2 °F - 41.0 °F 29% 30.20 in 10.0 mi SE 15.0 mph 23.0 mph N/A   Mostly Cloudy
12:35 PM 75.2 °F - 41.0 °F 29% 30.19 in 10.0 mi SSE 12.7 mph 17.3 mph N/A   Mostly Cloudy
12:55 PM 77.0 °F - 41.0 °F 28% 30.17 in 10.0 mi SSE 16.1 mph 21.9 mph N/A   Scattered Clouds
1:15 PM 77.0 °F - 42.8 °F 29% 30.17 in 10.0 mi SE 17.3 mph 26.5 mph N/A   Scattered Clouds
1:35 PM 77.0 °F - 44.6 °F 32% 30.16 in 10.0 mi SE 15.0 mph 21.9 mph N/A   Scattered Clouds
1:55 PM 77.0 °F - 44.6 °F 32% 30.15 in 10.0 mi SSE 15.0 mph 24.2 mph N/A   Scattered Clouds
2:15 PM 80.6 °F - 44.6 °F 28% 30.14 in 10.0 mi SE 12.7 mph 21.9 mph N/A   Partly Cloudy
2:35 PM 80.6 °F - 46.4 °F 30% 30.13 in 10.0 mi SSE 17.3 mph 23.0 mph N/A   Clear
2:55 PM 80.6 °F - 44.6 °F 28% 30.13 in 10.0 mi SSE 17.3 mph 20.7 mph N/A   Clear
3:15 PM 80.6 °F - 46.4 °F 30% 30.11 in 10.0 mi SSE 13.8 mph 20.7 mph N/A   Clear
3:35 PM 80.6 °F - 46.4 °F 30% 30.11 in 10.0 mi ESE 11.5 mph 21.9 mph N/A   Clear
3:55 PM 82.4 °F - 48.2 °F 30% 30.09 in 10.0 mi SE 11.5 mph 23.0 mph N/A   Clear
4:15 PM 82.4 °F - 48.2 °F 30% 30.09 in 10.0 mi SE 13.8 mph 23.0 mph N/A   Clear
4:35 PM 82.4 °F - 50.0 °F 32% 30.08 in 10.0 mi SSE 10.4 mph 24.2 mph N/A   Clear
4:55 PM 82.4 °F - 50.0 °F 32% 30.06 in 10.0 mi SE 15.0 mph 20.7 mph N/A   Clear
5:15 PM 82.4 °F - 50.0 °F 32% 30.06 in 10.0 mi SE 12.7 mph 18.4 mph N/A   Clear
5:35 PM 82.4 °F - 50.0 °F 32% 30.05 in 10.0 mi SE 13.8 mph 19.6 mph N/A   Clear
5:55 PM 82.4 °F - 50.0 °F 32% 30.05 in 10.0 mi ESE 15.0 mph - N/A   Clear
6:15 PM 82.4 °F - 50.0 °F 32% 30.04 in 10.0 mi ESE 13.8 mph 20.7 mph N/A   Clear
6:35 PM 82.4 °F - 51.8 °F 35% 30.03 in 10.0 mi SE 16.1 mph - N/A   Clear
6:55 PM 80.6 °F - 51.8 °F 37% 30.03 in 10.0 mi SE 11.5 mph 18.4 mph N/A   Clear
7:15 PM 80.6 °F 80.3 °F 53.6 °F 39% 30.02 in 10.0 mi ESE 15.0 mph - N/A   Clear
7:35 PM 80.6 °F 80.3 °F 53.6 °F 39% 30.01 in 10.0 mi SE 12.7 mph 17.3 mph N/A   Clear
7:55 PM 78.8 °F - 53.6 °F 42% 30.01 in 10.0 mi ESE 11.5 mph 16.1 mph N/A   Clear
8:15 PM 77.0 °F - 53.6 °F 44% 30.01 in 10.0 mi SE 9.2 mph - N/A   Clear
8:35 PM 75.2 °F - 53.6 °F 47% 30.01 in 10.0 mi SE 9.2 mph - N/A   Clear
8:55 PM 71.6 °F - 53.6 °F 53% 30.01 in 10.0 mi SE 9.2 mph - N/A   Clear
9:15 PM 68.0 °F - 53.6 °F 60% 30.01 in 10.0 mi ESE 9.2 mph - N/A   Clear
9:35 PM 68.0 °F - 53.6 °F 60% 30.01 in 10.0 mi SE 8.1 mph - N/A   Clear
9:55 PM 66.2 °F - 53.6 °F 64% 30.01 in 10.0 mi SE 8.1 mph - N/A   Clear
10:15 PM 68.0 °F - 53.6 °F 60% 30.01 in 10.0 mi SE 10.4 mph - N/A   Clear
10:35 PM 69.8 °F - 53.6 °F 56% 30.01 in 10.0 mi SE 11.5 mph - N/A   Clear
10:55 PM 66.2 °F - 53.6 °F 64% 30.02 in 10.0 mi SE 9.2 mph - N/A   Clear
11:15 PM 66.2 °F - 53.6 °F 64% 30.01 in 10.0 mi SE 9.2 mph - N/A   Clear
11:35 PM 64.4 °F - 53.6 °F 68% 30.01 in 10.0 mi SE 9.2 mph - N/A   Clear
11:55 PM 64.4 °F - 53.6 °F 68% 30.00 in 10.0 mi SE 11.5 mph - N/A   Clear